Time,TemperatureF,DewpointF,PressureIn,WindDirection,WindDirectionDegrees,WindSpeedMPH,WindSpeedGustMPH,Humidity,HourlyPrecipIn,Conditions,Clouds,dailyrainin,SoftwareType,DateUTC
2013-10-16 00:11:00,60.6,53.7,29.88,West,270,2.2,-999.0,78,-99.99,,,0.00,Acu-Link.com,2013-10-16 04:11:00,
2013-10-16 00:26:00,60.4,53.5,29.88,SSW,202,1.1,-999.0,78,-99.99,,,0.00,Acu-Link.com,2013-10-16 04:26:00,
2013-10-16 00:41:00,59.9,53.4,29.87,SSE,157,1.7,-999.0,79,-99.99,,,0.00,Acu-Link.com,2013-10-16 04:41:00,
2013-10-16 00:57:00,59.7,53.2,29.88,West,270,0.0,-999.0,79,-99.99,,,0.00,Acu-Link.com,2013-10-16 04:57:00,
2013-10-16 01:12:00,59.5,52.6,29.87,South,180,0.0,-999.0,78,-99.99,,,0.00,Acu-Link.com,2013-10-16 05:12:00,
2013-10-16 01:28:00,59.2,52.3,29.87,West,270,3.2,-999.0,78,-99.99,,,0.00,Acu-Link.com,2013-10-16 05:28:00,
2013-10-16 01:43:00,59.0,52.8,29.88,West,270,2.2,-999.0,80,-99.99,,,0.00,Acu-Link.com,2013-10-16 05:43:00,
2013-10-16 01:58:00,59.2,53.0,29.88,WSW,247,2.7,-999.0,80,-99.99,,,0.00,Acu-Link.com,2013-10-16 05:58:00,
2013-10-16 02:14:00,59.0,52.8,29.88,SSW,202,0.0,-999.0,80,-99.99,,,0.00,Acu-Link.com,2013-10-16 06:14:00,
2013-10-16 02:30:00,58.6,52.4,29.88,East,90,0.0,-999.0,80,-99.99,,,0.00,Acu-Link.com,2013-10-16 06:30:00,
2013-10-16 02:46:00,58.1,52.6,29.87,East,90,2.2,-999.0,82,-99.99,,,0.00,Acu-Link.com,2013-10-16 06:46:00,
2013-10-16 03:02:00,57.7,52.2,29.87,WSW,247,0.0,-999.0,82,-99.99,,,0.00,Acu-Link.com,2013-10-16 07:02:00,
2013-10-16 03:17:00,57.9,52.1,29.87,West,270,2.7,-999.0,81,-99.99,,,0.00,Acu-Link.com,2013-10-16 07:17:00,
2013-10-16 03:32:00,58.1,52.3,29.87,SSW,202,2.7,-999.0,81,-99.99,,,0.00,Acu-Link.com,2013-10-16 07:32:00,
2013-10-16 03:47:00,58.1,52.3,29.87,SSW,202,0.0,-999.0,81,-99.99,,,0.00,Acu-Link.com,2013-10-16 07:47:00,
2013-10-16 04:03:00,58.1,52.0,29.86,WSW,247,0.0,-999.0,80,-99.99,,,0.00,Acu-Link.com,2013-10-16 08:03:00,
2013-10-16 04:18:00,58.1,52.0,29.86,West,270,1.1,-999.0,80,-99.99,,,0.00,Acu-Link.com,2013-10-16 08:18:00,
2013-10-16 04:33:00,58.1,52.0,29.86,West,270,2.2,-999.0,80,-99.99,,,0.00,Acu-Link.com,2013-10-16 08:33:00,
2013-10-16 04:48:00,58.1,52.0,29.86,SW,225,2.7,-999.0,80,-99.99,,,0.00,Acu-Link.com,2013-10-16 08:48:00,
2013-10-16 05:03:00,58.1,52.0,29.85,SW,225,1.7,-999.0,80,-99.99,,,0.00,Acu-Link.com,2013-10-16 09:03:00,
2013-10-16 05:19:00,57.9,51.8,29.83,WSW,247,1.1,-999.0,80,-99.99,,,0.00,Acu-Link.com,2013-10-16 09:19:00,
2013-10-16 05:34:00,57.7,51.6,29.83,WSW,247,2.2,-999.0,80,-99.99,,,0.00,Acu-Link.com,2013-10-16 09:34:00,
2013-10-16 05:49:00,58.1,51.3,29.84,WSW,247,3.2,-999.0,78,-99.99,,,0.00,Acu-Link.com,2013-10-16 09:49:00,
2013-10-16 06:04:00,58.3,51.5,29.84,WSW,247,3.2,-999.0,78,-99.99,,,0.00,Acu-Link.com,2013-10-16 10:04:00,
2013-10-16 06:19:00,58.3,51.5,29.84,West,270,2.7,-999.0,78,-99.99,,,0.00,Acu-Link.com,2013-10-16 10:19:00,
2013-10-16 06:34:00,58.3,51.8,29.84,SSW,202,2.7,-999.0,79,-99.99,,,0.00,Acu-Link.com,2013-10-16 10:34:00,
2013-10-16 06:50:00,58.3,51.5,29.85,WSW,247,3.2,-999.0,78,-99.99,,,0.00,Acu-Link.com,2013-10-16 10:50:00,
2013-10-16 07:05:00,58.5,51.7,29.84,West,270,3.2,-999.0,78,-99.99,,,0.00,Acu-Link.com,2013-10-16 11:05:00,
2013-10-16 07:20:00,58.5,52.0,29.85,SSW,202,3.2,-999.0,79,-99.99,,,0.00,Acu-Link.com,2013-10-16 11:20:00,
2013-10-16 07:36:00,58.3,51.8,29.85,West,270,2.2,-999.0,79,-99.99,,,0.00,Acu-Link.com,2013-10-16 11:36:00,
2013-10-16 07:51:00,58.3,51.5,29.86,West,270,1.7,-999.0,78,-99.99,,,0.00,Acu-Link.com,2013-10-16 11:51:00,
2013-10-16 08:06:00,58.3,52.2,29.86,South,180,0.0,-999.0,80,-99.99,,,0.00,Acu-Link.com,2013-10-16 12:06:00,
2013-10-16 08:21:00,58.3,52.5,29.86,SE,135,0.0,-999.0,81,-99.99,,,0.00,Acu-Link.com,2013-10-16 12:21:00,
2013-10-16 08:37:00,58.8,53.0,29.86,SSE,157,0.0,-999.0,81,-99.99,,,0.00,Acu-Link.com,2013-10-16 12:37:00,
2013-10-16 08:52:00,59.4,53.2,29.86,SW,225,1.7,-999.0,80,-99.99,,,0.00,Acu-Link.com,2013-10-16 12:52:00,
2013-10-16 09:07:00,60.6,53.3,29.86,SW,225,0.0,-999.0,77,-99.99,,,0.00,Acu-Link.com,2013-10-16 13:07:00,
2013-10-16 09:22:00,61.5,54.2,29.85,SW,225,1.1,-999.0,77,-99.99,,,0.00,Acu-Link.com,2013-10-16 13:22:00,
2013-10-16 09:37:00,61.7,54.4,29.86,WSW,247,1.1,-999.0,77,-99.99,,,0.00,Acu-Link.com,2013-10-16 13:37:00,
2013-10-16 09:53:00,61.9,53.9,29.86,SW,225,4.2,-999.0,75,-99.99,,,0.00,Acu-Link.com,2013-10-16 13:53:00,
2013-10-16 10:08:00,61.9,53.5,29.86,West,270,2.7,-999.0,74,-99.99,,,0.00,Acu-Link.com,2013-10-16 14:08:00,
2013-10-16 10:23:00,61.7,53.0,29.86,SW,225,3.2,-999.0,73,-99.99,,,0.00,Acu-Link.com,2013-10-16 14:23:00,
2013-10-16 10:38:00,61.9,53.1,29.85,SSW,202,2.2,-999.0,73,-99.99,,,0.00,Acu-Link.com,2013-10-16 14:38:00,
2013-10-16 10:53:00,62.8,52.9,29.85,SW,225,3.7,-999.0,70,-99.99,,,0.00,Acu-Link.com,2013-10-16 14:53:00,
2013-10-16 11:08:00,63.5,53.1,29.86,SSW,202,3.7,-999.0,69,-99.99,,,0.00,Acu-Link.com,2013-10-16 15:08:00,
2013-10-16 11:23:00,63.3,53.7,29.86,WSW,247,2.7,-999.0,71,-99.99,,,0.00,Acu-Link.com,2013-10-16 15:23:00,
2013-10-16 11:39:00,63.1,53.5,29.85,SSW,202,4.2,-999.0,71,-99.99,,,0.00,Acu-Link.com,2013-10-16 15:39:00,
2013-10-16 11:54:00,63.0,54.6,29.85,South,180,2.7,-999.0,74,-99.99,,,0.00,Acu-Link.com,2013-10-16 15:54:00,
2013-10-16 12:09:00,62.2,55.6,29.85,SSW,202,2.2,-999.0,79,-99.99,,,0.00,Acu-Link.com,2013-10-16 16:09:00,
2013-10-16 12:25:00,61.9,55.7,29.85,SW,225,6.3,-999.0,80,-99.99,,,0.00,Acu-Link.com,2013-10-16 16:25:00,
2013-10-16 12:40:00,61.3,56.4,29.85,SW,225,2.7,-999.0,84,-99.99,,,0.00,Acu-Link.com,2013-10-16 16:40:00,
2013-10-16 12:55:00,61.2,57.3,29.85,SW,225,2.2,-999.0,87,-99.99,,,0.00,Acu-Link.com,2013-10-16 16:55:00,
2013-10-16 13:10:00,61.3,57.7,29.83,South,180,0.0,-999.0,88,-99.99,,,0.01,Acu-Link.com,2013-10-16 17:10:00,
2013-10-16 13:25:00,61.2,57.9,29.83,SSW,202,4.2,-999.0,89,-99.99,,,0.01,Acu-Link.com,2013-10-16 17:25:00,
2013-10-16 13:41:00,60.8,58.5,29.83,SSW,202,0.0,-999.0,92,-99.99,,,0.01,Acu-Link.com,2013-10-16 17:41:00,
2013-10-16 13:56:00,61.0,59.0,29.82,SW,225,2.7,-999.0,93,-99.99,,,0.02,Acu-Link.com,2013-10-16 17:56:00,
2013-10-16 14:11:00,60.8,58.8,29.82,West,270,1.7,-999.0,93,-99.99,,,0.02,Acu-Link.com,2013-10-16 18:11:00,
2013-10-16 14:26:00,62.2,60.4,29.81,SSW,202,2.2,-999.0,94,-99.99,,,0.02,Acu-Link.com,2013-10-16 18:26:00,
2013-10-16 14:42:00,63.3,60.9,29.80,SW,225,2.2,-999.0,92,-99.99,,,0.03,Acu-Link.com,2013-10-16 18:42:00,
2013-10-16 14:57:00,64.0,61.0,29.80,South,180,1.7,-999.0,90,-99.99,,,0.03,Acu-Link.com,2013-10-16 18:57:00,
2013-10-16 15:12:00,64.6,61.6,29.80,West,270,3.7,-999.0,90,-99.99,,,0.03,Acu-Link.com,2013-10-16 19:12:00,
2013-10-16 15:27:00,64.4,61.1,29.79,West,270,1.7,-999.0,89,-99.99,,,0.03,Acu-Link.com,2013-10-16 19:27:00,
2013-10-16 15:42:00,64.6,61.3,29.79,West,270,3.2,-999.0,89,-99.99,,,0.03,Acu-Link.com,2013-10-16 19:42:00,
2013-10-16 15:58:00,64.8,61.8,29.80,WSW,247,3.2,-999.0,90,-99.99,,,0.03,Acu-Link.com,2013-10-16 19:58:00,
2013-10-16 16:13:00,65.3,62.0,29.78,SW,225,2.7,-999.0,89,-99.99,,,0.03,Acu-Link.com,2013-10-16 20:13:00,
2013-10-16 16:28:00,66.2,62.2,29.78,SW,225,3.2,-999.0,87,-99.99,,,0.03,Acu-Link.com,2013-10-16 20:28:00,
2013-10-16 16:44:00,66.4,62.4,29.78,SW,225,3.2,-999.0,87,-99.99,,,0.03,Acu-Link.com,2013-10-16 20:44:00,
2013-10-16 16:59:00,66.4,62.4,29.78,SW,225,2.2,-999.0,87,-99.99,,,0.03,Acu-Link.com,2013-10-16 20:59:00,
2013-10-16 17:14:00,66.2,62.2,29.77,WSW,247,0.0,-999.0,87,-99.99,,,0.03,Acu-Link.com,2013-10-16 21:14:00,
2013-10-16 17:29:00,66.0,62.3,29.77,SSW,202,0.0,-999.0,88,-99.99,,,0.03,Acu-Link.com,2013-10-16 21:29:00,
2013-10-16 17:45:00,65.5,61.8,29.77,SW,225,2.2,-999.0,88,-99.99,,,0.03,Acu-Link.com,2013-10-16 21:45:00,
2013-10-16 18:00:00,64.9,61.9,29.77,West,270,1.7,-999.0,90,-99.99,,,0.03,Acu-Link.com,2013-10-16 22:00:00,
2013-10-16 18:15:00,64.4,61.4,29.77,SW,225,0.0,-999.0,90,-99.99,,,0.03,Acu-Link.com,2013-10-16 22:15:00,
2013-10-16 18:31:00,64.0,61.6,29.76,SSW,202,2.7,-999.0,92,-99.99,,,0.03,Acu-Link.com,2013-10-16 22:31:00,
2013-10-16 18:46:00,63.5,61.7,29.76,WSW,247,2.7,-999.0,94,-99.99,,,0.03,Acu-Link.com,2013-10-16 22:46:00,
2013-10-16 19:01:00,63.3,61.5,29.77,WSW,247,2.7,-999.0,94,-99.99,,,0.03,Acu-Link.com,2013-10-16 23:01:00,
2013-10-16 19:17:00,63.3,61.5,29.77,SSW,202,3.7,-999.0,94,-99.99,,,0.03,Acu-Link.com,2013-10-16 23:17:00,
2013-10-16 19:32:00,63.7,61.3,29.77,SSW,202,3.2,-999.0,92,-99.99,,,0.03,Acu-Link.com,2013-10-16 23:32:00,
2013-10-16 19:47:00,63.7,61.3,29.77,SSW,202,3.7,-999.0,92,-99.99,,,0.03,Acu-Link.com,2013-10-16 23:47:00,
2013-10-16 20:02:00,63.7,61.0,29.77,SSW,202,3.7,-999.0,91,-99.99,,,0.03,Acu-Link.com,2013-10-17 00:02:00,
2013-10-16 20:17:00,63.7,60.4,29.77,SSW,202,3.7,-999.0,89,-99.99,,,0.03,Acu-Link.com,2013-10-17 00:17:00,
2013-10-16 20:32:00,63.9,60.3,29.77,SW,225,4.2,-999.0,88,-99.99,,,0.03,Acu-Link.com,2013-10-17 00:32:00,
2013-10-16 20:47:00,64.0,60.4,29.78,WSW,247,8.9,-999.0,88,-99.99,,,0.03,Acu-Link.com,2013-10-17 00:47:00,
2013-10-16 21:03:00,64.0,60.4,29.78,SSW,202,6.3,-999.0,88,-99.99,,,0.03,Acu-Link.com,2013-10-17 01:03:00,
2013-10-16 21:18:00,63.9,60.6,29.77,SW,225,5.3,-999.0,89,-99.99,,,0.03,Acu-Link.com,2013-10-17 01:18:00,
2013-10-16 21:33:00,63.9,60.6,29.78,SW,225,7.8,-999.0,89,-99.99,,,0.03,Acu-Link.com,2013-10-17 01:33:00,
2013-10-16 21:48:00,63.7,60.4,29.78,WSW,247,4.2,-999.0,89,-99.99,,,0.03,Acu-Link.com,2013-10-17 01:48:00,
2013-10-16 22:03:00,63.5,60.5,29.79,WSW,247,6.8,-999.0,90,-99.99,,,0.03,Acu-Link.com,2013-10-17 02:03:00,
2013-10-16 22:18:00,63.5,60.5,29.79,SSW,202,5.8,-999.0,90,-99.99,,,0.03,Acu-Link.com,2013-10-17 02:18:00,
2013-10-16 22:34:00,63.5,60.5,29.79,West,270,9.4,-999.0,90,-99.99,,,0.03,Acu-Link.com,2013-10-17 02:34:00,
2013-10-16 22:49:00,63.5,60.5,29.79,WNW,292,4.7,-999.0,90,-99.99,,,0.03,Acu-Link.com,2013-10-17 02:49:00,
2013-10-16 23:04:00,63.3,60.6,29.79,SW,225,4.7,-999.0,91,-99.99,,,0.03,Acu-Link.com,2013-10-17 03:04:00,
2013-10-16 23:19:00,63.3,60.6,29.79,SSW,202,3.2,-999.0,91,-99.99,,,0.03,Acu-Link.com,2013-10-17 03:19:00,
2013-10-16 23:35:00,63.1,60.7,29.78,WSW,247,4.7,-999.0,92,-99.99,,,0.03,Acu-Link.com,2013-10-17 03:35:00,
2013-10-16 23:50:00,62.6,60.8,29.79,WSW,247,3.7,-999.0,94,-99.99,,,0.03,Acu-Link.com,2013-10-17 03:50:00,